Theta_e
305 305 304 304 304 305 304 303 303 302 302 299 298 302 302 302 297 310 314 312 309 301 294 297 292 293 295 298 297 298 295 294 296 294 297 293 296 293 291 290 290 291 291 291 290 290 286 288 287 289 288 290 292 294 294 296 295 295 292 293 294 298 288 285 287 291 293 295 297 297 298 298 295 296 297 296 294 295 294 294 295 292 293 291 291 288 293
305 305 304 304 304 305 304 303 303 303 302 300 300 299 299 300 300 305 313 314 309 298 288 289 291 293 296 296 295 299 296 295 294 294 295 293 292 290 289 290 294 291 294 292 290 293 284 290 288 288 291 290 295 295 295 296 293 293 291 288 297 287 290 288 284 283 286 288 291 292 296 296 293 293 295 296 298 299 299 299 299 291 293 293 291 285 291
305 304 304 304 305 304 304 304 303 303 303 302 300 296 299 298 303 304 308 311 307 295 297 293 291 292 292 293 292 294 295 297 296 295 293 296 295 293 289 292 295 293 294 291 293 293 290 287 293 291 291 291 295 296 295 296 294 296 298 300 297 290 289 287 280 278 276 276 278 281 285 289 293 294 295 297 297 297 296 290 293 289 294 295 291 290 299
305 304 304 304 304 304 304 303 303 303 302 302 300 299 297 297 290 298 300 304 303 301 302 299 295 292 292 289 292 294 291 296 298 298 295 297 295 295 294 295 297 293 291 291 289 289 293 289 290 290 290 292 294 296 296 295 295 299 301 299 297 291 293 291 289 286 284 286 288 292 294 292 289 292 294 295 297 298 298 300 292 289 295 292 296 296 297
305 304 304 304 304 304 304 303 303 302 302 302 300 299 299 300 293 292 291 297 300 298 299 298 297 292 296 288 293 290 292 294 296 299 292 296 295 293 294 294 290 291 291 290 290 290 289 293 292 291 289 294 295 298 296 296 297 299 298 298 297 293 289 292 292 292 292 293 292 294 294 291 292 292 292 295 296 297 299 291 291 299 295 290 299 300 298
305 305 305 304 304 304 304 303 303 302 302 302 302 297 301 292 296 299 298 291 289 292 293 297 296 297 297 292 296 292 291 292 290 296 297 296 298 291 293 295 294 292 291 292 287 288 288 290 288 293 293 293 294 294 296 294 298 298 296 299 295 292 287 292 292 291 292 295 294 295 294 294 294 294 294 294 296 297 299 296 298 301 292 291 299 302 300
305 305 305 304 304 304 304 303 303 302 302 302 303 293 298 298 296 298 298 291 295 295 296 297 296 295 296 294 295 292 292 291 295 294 294 296 294 294 285 289 292 293 294 291 288 289 285 285 292 292 293 292 293 291 293 295 298 297 296 297 301 295 290 293 293 291 292 293 294 295 294 294 294 294 295 296 296 296 298 298 299 299 300 301 301 302 302
305 305 305 304 304 304 304 303 303 302 301 303 302 297 292 291 290 289 295 294 292 295 297 298 296 294 296 291 294 294 293 291 294 297 295 290 290 295 290 291 294 293 293 291 289 289 292 293 288 295 295 294 294 292 293 293 297 297 295 296 299 295 288 293 293 290 291 292 293 294 294 293 292 294 295 295 296 296 297 299 301 301 300 301 302 301 301
305 305 305 305 304 304 304 303 303 302 302 300 298 297 297 296 298 296 289 287 293 296 297 295 295 293 295 292 294 294 294 293 296 295 300 297 294 294 290 293 295 296 297 296 295 297 296 296 296 298 297 291 296 294 293 296 294 295 295 296 296 295 290 295 293 287 288 292 292 292 294 294 293 292 294 294 294 294 297 296 302 299 297 300 301 299 300
305 305 305 305 305 304 304 304 303 302 302 299 297 294 299 298 300 298 293 286 293 291 295 296 296 291 295 295 295 294 295 296 297 292 299 302 301 300 297 294 292 295 295 296 298 302 302 301 302 301 301 300 300 299 299 298 295 295 295 297 293 295 293 288 290 287 286 292 293 292 292 292 289 290 294 295 296 296 298 299 303 303 302 297 292 299 305
305 305 305 305 305 304 304 304 303 303 302 297 295 295 296 293 291 293 294 288 290 294 295 295 294 295 298 298 296 298 297 297 298 291 292 301 301 303 301 298 296 294 295 299 305 305 305 305 305 305 302 301 299 300 301 300 299 298 296 296 295 294 294 290 294 286 287 292 293 293 289 282 284 297 300 298 296 297 296 298 302 303 304 301 304 305 308
305 305 305 305 305 305 304 304 304 303 302 301 301 297 298 298 296 294 290 285 287 293 293 293 294 296 297 297 297 296 296 296 297 300 295 298 300 303 301 301 298 290 302 307 306 305 306 306 303 302 301 299 299 299 299 297 299 299 300 296 295 294 292 290 295 288 287 291 292 286 281 283 296 300 300 300 300 298 297 299 300 301 303 304 303 305 306
305 305 305 305 305 305 305 304 304 303 303 303 300 297 299 300 295 292 291 288 285 289 289 292 296 298 297 298 297 297 298 300 300 301 301 298 297 301 303 301 299 301 307 305 306 303 297 295 295 296 296 297 297 298 297 298 298 300 300 300 296 292 291 290 290 291 291 287 286 280 282 295 299 300 302 303 301 300 300 298 300 302 303 303 303 304 306
305 305 305 305 305 305 305 304 304 304 303 303 300 299 301 300 294 292 291 286 285 291 292 291 296 295 296 296 297 298 300 298 300 301 299 301 301 299 303 305 304 309 307 308 304 300 293 293 288 290 292 294 295 293 296 299 299 298 299 300 299 297 297 291 287 294 286 287 286 286 295 294 296 297 298 298 296 297 296 290 296 303 303 304 302 304 305
305 305 305 305 305 305 305 304 304 304 303 303 302 301 301 300 298 293 294 290 285 288 292 288 290 294 295 295 297 296 296 296 296 296 301 303 301 303 304 306 307 308 308 304 298 299 292 289 286 284 287 286 282 286 296 294 299 301 301 300 300 300 293 293 288 288 291 287 285 286 287 284 290 299 302 306 307 305 305 298 295 305 304 305 305 305 306
305 305 305 305 305 305 305 305 304 304 303 303 302 301 301 302 301 297 293 290 287 283 291 294 295 296 293 294 298 296 293 293 294 296 296 298 300 303 306 308 308 309 307 304 299 295 290 287 286 286 284 286 290 287 286 293 293 299 301 301 300 300 299 296 292 289 289 288 286 285 284 286 296 299 301 305 306 305 309 297 291 302 305 305 306 305 307
305 305 305 304 304 304 305 305 304 304 303 303 300 300 300 304 299 296 293 291 289 285 294 295 297 295 293 294 297 295 296 293 295 291 290 294 298 301 302 306 311 308 304 303 300 294 290 289 289 290 290 292 288 287 292 289 289 292 298 299 298 296 295 292 290 289 290 288 286 285 289 288 297 301 303 302 304 307 301 286 288 303 306 307 308 307 307
304 304 304 304 304 305 305 305 304 304 303 303 302 299 299 304 304 301 295 291 287 288 294 298 294 290 291 293 293 298 300 299 297 298 295 297 299 298 300 303 300 306 307 295 294 289 288 289 287 287 286 295 295 293 284 289 286 288 291 292 292 290 290 292 288 290 290 288 289 290 292 298 306 303 305 304 310 304 290 285 291 311 308 309 310 308 311
304 304 304 304 304 305 305 305 304 304 303 303 303 301 301 304 304 302 297 292 290 286 294 297 297 296 298 302 300 299 300 299 297 294 293 293 296 300 301 302 304 296 302 295 296 290 289 289 296 292 289 291 296 288 294 288 287 293 294 290 291 291 292 291 292 289 288 290 290 289 292 303 308 309 305 308 302 290 289 303 313 315 310 311 310 311 313
304 304 304 304 304 305 305 304 304 304 303 303 302 299 300 303 304 302 296 290 291 288 291 294 296 295 300 297 294 294 296 297 298 295 294 290 299 300 298 293 300 301 297 298 291 295 290 288 292 295 291 291 294 296 292 292 297 293 294 297 291 292 288 288 288 293 293 290 289 286 284 295 308 309 304 306 294 295 308 313 315 315 313 312 313 316 318
304 304 304 304 304 304 305 304 304 304 304 303 303 300 298 304 305 304 302 296 291 286 290 299 298 296 297 296 298 298 297 294 296 294 296 296 300 297 288 289 296 297 292 293 289 290 292 290 293 292 296 293 295 295 289 290 293 300 298 295 295 300 290 289 292 298 289 289 286 288 298 303 309 307 296 305 310 313 315 315 312 314 315 315 315 316 319
303 303 304 304 304 305 304 304 303 303 303 303 302 301 297 302 304 304 303 300 293 290 292 297 298 297 299 300 301 301 300 300 301 302 298 295 300 297 298 300 298 299 300 300 295 292 296 295 296 292 290 292 299 292 295 289 287 295 300 300 289 299 296 298 292 301 295 292 296 304 306 312 312 313 312 314 314 317 316 316 315 316 315 320 317 317 320
303 303 303 304 304 304 304 303 303 303 303 303 303 300 297 299 301 305 303 296 298 298 299 298 300 300 302 303 304 305 306 307 305 305 304 298 295 299 299 300 299 303 304 302 296 294 294 295 291 296 294 296 293 292 295 294 290 295 291 298 298 302 303 304 301 300 305 306 306 307 308 311 312 314 314 312 314 317 319 317 315 317 319 318 319 321 320
303 303 304 304 304 304 303 303 303 303 303 303 303 301 299 301 302 302 300 298 295 290 294 299 297 295 299 301 305 308 306 305 307 308 309 306 294 294 300 304 303 303 302 303 305 298 297 295 295 298 291 296 298 291 289 289 291 296 296 294 300 302 304 301 296 301 298 291 304 302 305 309 310 311 313 315 317 316 317 316 317 318 319 318 318 321 321
303 303 304 304 304 303 303 303 303 303 303 303 304 304 303 301 302 302 297 289 290 289 284 288 292 300 304 305 305 304 306 308 310 308 307 307 303 297 296 302 305 300 299 303 305 302 298 293 295 296 290 298 298 290 298 292 293 300 292 294 297 297 306 299 296 300 297 294 302 305 308 308 309 312 311 312 313 315 317 317 318 319 321 321 320 321 319
303 303 303 303 303 303 303 303 303 303 303 303 303 301 299 300 304 304 301 299 297 294 287 287 292 302 304 301 300 304 308 307 307 308 308 307 306 306 304 304 303 307 305 305 304 298 296 295 296 295 294 292 302 294 293 297 297 302 297 296 301 302 303 293 299 298 301 303 304 306 308 308 310 311 312 313 314 314 315 315 316 318 317 318 320 319 317
303 303 303 303 303 303 303 303 303 302 302 303 302 302 301 302 305 303 299 298 292 288 291 288 293 297 300 297 302 306 308 307 308 307 306 307 306 306 306 305 303 303 303 302 303 299 298 296 295 295 298 297 301 299 300 301 300 295 296 301 305 301 297 302 300 292 292 296 301 306 296 294 306 309 311 313 315 315 315 315 315 315 314 316 317 318 320
303 303 303 303 303 303 303 303 303 302 302 303 303 302 303 303 304 306 305 302 296 288 288 288 289 294 299 298 305 307 307 308 307 306 306 306 307 306 306 305 304 302 301 299 295 296 295 294 295 296 296 301 299 295 302 303 302 298 299 301 305 301 302 302 293 292 293 303 306 307 307 308 309 309 312 313 314 315 313 313 314 316 317 315 315 315 315
303 303 303 303 303 304 304 303 302 302 303 303 303 302 302 304 305 306 305 306 302 296 292 291 294 294 291 298 303 302 306 307 307 306 306 306 307 307 306 305 303 303 302 299 297 296 296 296 297 297 298 304 301 296 298 292 292 291 297 303 305 307 308 307 305 305 306 309 309 311 307 304 308 310 312 313 314 313 313 313 314 315 315 317 317 315 315
303 303 303 303 304 304 303 303 302 302 303 302 301 299 296 299 305 306 306 305 302 298 290 287 284 289 300 300 302 305 306 307 307 307 307 306 307 306 306 305 304 305 303 298 297 294 296 297 296 303 306 310 301 297 293 295 295 297 303 304 306 306 309 309 309 306 305 310 311 311 311 310 312 313 313 315 316 314 313 313 313 313 315 317 317 317 318
303 303 304 304 304 303 303 302 301 301 302 301 299 292 291 289 298 305 303 305 305 298 292 290 287 293 292 301 304 303 305 306 307 306 306 308 308 308 309 308 306 305 299 299 298 298 298 296 296 300 305 306 301 296 295 295 293 297 301 305 305 307 307 308 310 312 311 311 313 313 312 311 313 312 314 314 313 315 314 314 315 315 315 316 317 318 318
303 304 304 303 303 302 302 302 302 302 301 299 295 295 297 298 300 304 303 302 302 297 291 287 287 289 290 295 303 307 306 306 305 305 306 307 306 309 308 306 304 307 301 299 299 298 296 298 296 301 301 305 301 298 298 298 293 295 302 303 303 308 308 310 311 311 311 312 311 309 310 309 312 310 311 313 314 315 316 315 316 316 315 317 318 318 319
303 303 303 303 302 302 302 302 302 302 301 302 304 303 302 302 302 302 303 303 299 295 295 289 285 288 288 295 301 304 306 305 303 305 303 310 306 310 304 308 307 305 308 300 297 295 301 298 296 297 303 309 296 296 297 294 300 304 304 304 306 308 308 308 309 310 313 312 311 306 305 309 312 312 312 314 313 313 315 313 314 314 315 316 315 316 316
303 303 303 302 302 302 302 302 302 302 302 300 297 300 304 303 304 302 304 301 296 297 294 288 286 287 288 299 295 304 306 300 299 302 296 307 309 305 301 305 307 298 303 300 300 299 299 300 297 297 302 295 301 295 292 297 301 302 304 306 307 307 309 308 308 308 312 311 313 312 311 313 314 315 313 313 313 314 314 314 315 313 313 313 314 315 316
303 303 302 302 302 302 302 301 301 300 298 300 301 304 302 302 304 303 301 298 291 289 289 290 291 288 288 290 290 297 304 301 298 302 296 301 308 303 304 298 301 296 298 308 299 299 296 297 304 296 294 302 295 292 292 299 300 303 304 304 306 307 308 306 307 309 311 312 311 312 312 312 312 312 309 312 313 314 310 312 312 312 311 313 314 315 315
303 302 301 302 302 302 302 302 301 299 298 298 300 302 302 302 304 305 306 304 298 291 289 289 290 288 289 286 288 295 304 299 304 304 302 301 301 306 304 300 294 298 306 300 296 300 293 303 298 292 296 293 291 296 298 301 301 303 304 304 305 306 306 306 307 310 311 311 312 312 310 312 310 311 313 311 311 312 313 312 311 312 312 312 312 313 314
302 301 301 301 301 301 298 298 302 302 301 305 303 303 302 303 306 305 305 301 301 300 292 289 287 289 292 291 294 294 301 292 300 298 301 295 294 298 300 297 293 296 297 295 295 294 300 308 296 292 292 292 294 301 302 303 303 303 303 305 307 308 308 308 309 309 308 309 310 310 309 308 310 309 309 310 312 313 312 309 312 311 311 311 312 312 313
301 301 300 297 298 294 293 296 301 306 304 301 302 301 300 300 294 295 294 292 296 296 293 293 287 292 296 294 289 300 300 296 301 295 295 299 295 294 297 294 294 294 289 291 295 304 298 294 293 292 292 300 304 302 303 304 306 306 306 306 307 308 308 309 310 309 306 305 305 307 307 308 308 308 307 308 309 311 313 315 314 314 314 313 313 313 313
299 299 298 298 296 292 293 302 304 302 302 301 301 294 292 295 293 290 290 292 292 289 292 291 289 294 294 294 296 304 300 297 295 297 292 301 294 290 294 289 295 294 290 289 294 302 291 292 293 293 291 300 300 301 304 305 306 306 307 308 309 309 310 309 310 308 307 305 307 308 308 307 307 308 310 309 309 310 312 313 313 314 314 313 314 313 313
298 295 293 294 294 296 301 304 302 300 299 293 295 293 288 293 289 287 293 289 289 292 294 290 296 296 298 296 295 295 305 299 292 293 294 296 303 292 294 293 294 291 286 286 291 300 291 287 291 291 290 298 301 307 305 305 305 306 307 307 308 309 309 308 308 310 310 309 310 310 311 311 311 311 312 310 308 309 311 311 313 314 314 314 313 314 313
298 297 297 293 299 301 302 303 303 301 295 291 291 290 289 287 291 292 290 288 288 290 297 296 299 297 299 300 299 294 303 305 304 303 297 293 301 299 293 288 295 289 286 286 293 294 292 290 290 289 292 300 302 303 305 305 305 306 307 307 307 307 307 308 308 308 308 308 308 308 309 309 310 310 311 312 312 311 311 310 310 310 313 313 314 314 315
300 298 298 300 300 303 302 299 296 292 292 292 287 285 288 288 291 291 291 286 287 292 297 297 294 296 296 299 298 300 299 307 303 298 295 291 295 292 290 292 292 288 285 291 297 292 291 286 287 289 297 302 304 306 305 305 305 306 307 307 307 306 306 305 305 306 307 307 307 307 308 308 308 308 309 310 310 310 311 311 311 311 313 313 315 313 313
301 300 301 298 295 294 296 290 293 291 285 284 284 282 286 284 287 286 288 292 297 294 295 302 300 302 303 304 300 304 299 305 297 293 293 291 296 295 291 289 288 285 289 296 291 288 286 286 287 294 301 301 303 305 305 305 306 307 307 307 306 306 305 305 304 304 305 305 306 306 306 307 307 308 308 308 309 309 309 308 308 310 311 312 312 312 312
301 300 296 294 291 291 293 282 292 288 285 286 284 280 283 283 286 288 287 290 295 293 297 293 295 295 291 299 296 295 297 299 299 297 294 295 293 289 289 286 287 293 297 291 288 285 286 289 292 299 302 304 306 306 306 305 307 307 307 306 306 306 305 305 304 304 304 306 306 306 305 306 306 307 308 307 307 307 308 308 309 309 310 312 311 311 312
293 291 290 289 287 290 287 281 292 287 282 284 286 285 286 284 288 290 289 294 296 294 297 297 296 296 293 298 298 297 296 292 299 292 288 292 289 290 288 287 291 292 289 286 287 288 288 288 297 300 300 300 303 305 306 305 306 306 305 305 305 305 304 304 303 304 304 304 304 304 304 304 305 306 306 306 307 307 307 307 308 307 309 309 310 310 311
290 288 288 284 280 285 286 283 286 284 288 289 288 291 290 292 292 292 296 298 296 295 295 296 296 296 293 297 292 291 294 295 292 291 293 293 288 286 291 294 293 287 286 287 285 284 286 293 295 299 302 303 305 306 305 307 307 306 304 303 304 304 304 304 304 304 304 304 304 303 304 304 304 304 304 305 306 307 307 307 307 307 308 308 308 308 310
292 292 290 288 283 287 289 283 285 288 291 292 294 295 294 294 295 295 297 297 295 297 296 298 296 296 292 293 293 294 294 295 290 292 294 288 287 290 294 289 285 286 284 283 284 286 290 295 298 301 304 304 305 305 305 306 306 304 304 304 304 304 303 303 304 303 304 304 304 303 303 304 304 304 304 305 305 307 306 306 307 308 307 306 308 308 308
287 291 290 282 281 285 284 287 292 293 294 294 295 296 297 297 295 294 297 298 298 298 295 295 293 295 293 298 296 291 292 293 289 290 292 290 291 288 287 286 286 287 288 286 287 292 294 297 299 301 303 303 304 304 304 305 305 306 305 304 304 303 304 303 303 303 304 303 303 303 303 303 303 303 304 304 305 306 306 306 307 307 307 307 307 307 307
292 289 286 286 287 288 288 293 293 291 293 295 296 295 295 294 294 295 297 298 297 296 297 295 292 292 289 292 290 290 288 292 286 287 291 289 286 283 284 282 284 283 288 292 292 296 297 299 301 304 304 304 304 304 304 306 306 306 305 305 304 304 303 303 303 304 304 304 303 303 303 304 304 304 304 304 304 305 306 307 307 307 307 307 306 306 307
289 288 290 288 287 289 292 294 291 288 293 294 294 293 295 294 293 295 299 296 297 296 298 295 297 291 290 290 287 289 288 291 289 290 288 286 286 287 286 283 285 285 288 293 296 297 301 300 301 301 302 304 305 306 305 304 303 305 306 305 305 304 304 304 303 305 305 304 304 303 303 303 304 303 303 303 304 305 305 305 306 306 306 306 306 306 305
292 289 289 293 288 287 290 286 287 288 290 292 293 293 294 293 294 294 298 296 296 294 291 288 290 289 288 287 287 284 286 291 288 287 287 286 290 287 285 284 287 291 294 297 297 300 300 300 300 299 301 302 303 304 306 306 305 306 307 305 305 304 303 304 304 305 305 305 305 299 302 302 304 304 305 305 304 304 305 305 304 306 306 306 306 306 305
288 286 287 290 293 292 292 292 292 291 291 293 293 294 295 293 295 296 299 297 295 290 288 291 290 288 286 284 287 290 291 289 287 287 286 288 291 287 287 288 292 295 296 295 297 299 300 301 301 300 301 301 302 305 306 306 306 306 307 306 304 304 303 303 303 303 304 304 304 304 304 305 305 305 304 303 303 302 302 303 304 305 305 306 306 306 306
Wind_Speed
20 21 23 23 23 24 24 26 25 24 25 15 12 11 8 6 5 4 10 9 9 5 8 7 3 7 8 11 11 11 7 10 12 14 9 9 2 3 5 5 7 5 5 3 5 7 7 7 4 7 4 5 9 6 13 14 12 8 6 0 4 11 2 7 8 7 10 13 14 17 20 19 20 18 16 14 11 11 10 5 8 8 12 11 9 6 6
20 21 23 22 22 22 24 26 23 23 21 14 13 9 7 9 10 3 7 8 7 7 5 8 9 9 12 13 14 11 7 10 13 12 13 7 3 2 2 3 5 7 8 10 6 2 3 3 8 6 10 6 7 12 12 12 9 7 5 4 1 3 0 3 5 6 10 11 12 15 17 16 11 10 12 14 12 15 11 5 7 6 12 13 9 8 6
19 21 21 21 21 22 23 24 24 22 21 16 10 8 8 10 9 8 6 7 6 6 4 7 8 9 13 15 16 14 8 8 12 12 11 7 4 7 4 6 7 6 3 3 5 6 6 5 6 7 10 8 10 12 9 12 10 9 4 16 7 1 1 2 7 8 7 9 11 13 12 13 8 13 17 18 16 15 8 3 7 7 10 18 6 6 7
18 19 20 20 21 22 23 23 24 24 22 20 10 7 7 5 7 7 1 5 6 8 8 8 7 8 10 11 11 14 13 13 11 9 7 3 9 6 9 7 5 6 4 2 1 4 6 9 3 3 5 7 10 10 9 11 11 11 4 4 6 3 6 8 10 8 9 12 14 13 13 11 12 15 17 16 14 15 9 2 3 4 4 8 8 8 12
17 17 19 20 21 22 21 23 25 25 25 20 11 8 5 6 3 5 7 9 5 6 5 5 6 8 10 8 6 12 13 13 13 6 5 1 10 9 8 4 6 7 9 4 4 7 7 11 13 10 7 11 12 14 9 10 14 6 4 3 5 4 6 7 10 10 9 12 16 18 19 16 17 18 18 19 18 15 3 1 5 8 7 4 7 14 10
17 16 18 19 20 21 22 23 25 27 26 28 11 7 4 5 5 7 5 5 8 9 6 10 10 14 14 10 10 14 15 15 11 9 2 6 4 6 3 4 8 9 9 8 4 1 3 5 6 7 8 9 10 12 10 10 8 5 6 6 4 3 4 4 5 9 10 14 18 19 18 17 15 14 14 15 17 12 5 6 10 3 3 5 11 7 7
16 17 16 19 20 20 22 23 25 27 28 26 9 7 5 5 6 2 11 5 8 10 14 16 15 14 10 7 10 14 14 17 14 9 12 10 3 2 5 7 8 13 11 6 3 2 4 3 6 5 5 8 8 9 8 10 8 7 6 4 6 2 3 5 7 10 10 13 17 20 20 18 15 15 16 16 16 13 10 8 8 2 9 9 9 10 8
16 17 17 18 19 19 21 24 23 24 29 22 5 8 7 6 7 6 10 7 12 15 13 10 10 10 8 9 13 14 14 16 15 13 10 7 2 3 8 15 14 10 12 8 3 4 3 3 2 4 2 8 8 7 5 4 7 6 7 5 5 3 3 8 10 7 8 11 13 15 20 16 15 14 14 15 15 16 14 3 9 12 7 12 8 9 6
15 16 17 17 18 19 20 22 22 22 25 9 9 6 8 6 6 5 8 12 8 10 11 10 10 8 9 10 15 13 15 15 16 13 11 8 12 5 10 12 15 12 9 8 5 8 5 5 3 5 3 4 2 4 4 7 6 8 5 4 7 4 3 4 5 5 5 9 10 15 18 18 13 12 16 16 13 9 8 6 4 7 4 9 11 5 6
15 15 16 16 16 17 18 19 20 20 22 9 8 7 7 7 5 6 6 7 8 11 14 11 8 6 9 11 15 12 17 17 14 11 6 6 10 10 8 7 7 10 10 5 5 4 4 3 6 7 5 6 6 5 9 12 5 5 3 1 6 3 4 2 5 4 4 7 11 14 15 15 12 10 13 16 13 13 8 9 7 5 5 4 3 5 7
14 14 15 16 15 15 17 16 18 18 14 10 9 8 9 8 9 8 6 9 11 9 11 9 9 8 14 15 16 15 15 19 14 10 6 11 11 13 11 12 6 7 6 7 6 4 2 5 4 4 5 7 8 5 9 11 2 3 5 2 1 4 2 5 6 2 2 9 13 11 8 9 9 8 12 17 14 14 9 4 5 6 5 1 10 6 5
13 13 14 15 16 15 14 15 15 15 13 10 8 8 6 6 7 7 6 8 9 11 10 9 10 12 16 17 15 15 17 17 15 12 13 13 15 8 11 6 6 2 5 7 4 1 2 4 3 2 3 3 5 7 8 8 4 5 7 6 5 4 0 4 4 4 2 2 5 8 9 9 9 11 13 15 13 14 14 10 12 11 7 9 12 11 8
13 14 13 14 15 15 14 13 14 14 12 10 9 8 7 5 6 6 7 6 9 10 10 12 15 13 16 17 15 16 18 15 15 14 6 4 11 14 8 4 5 5 7 6 8 7 3 3 2 1 3 3 5 6 9 10 9 10 10 6 4 3 1 3 4 4 3 2 3 6 8 8 10 11 11 11 12 11 12 9 11 10 7 6 4 12 11
13 13 13 13 13 14 13 12 13 13 12 11 9 8 9 6 7 7 6 5 9 9 11 14 11 16 19 19 16 18 15 15 17 12 13 8 3 13 10 5 4 4 5 3 4 6 2 3 3 3 2 4 4 5 5 10 12 13 13 10 7 4 1 1 4 5 3 3 7 2 3 9 8 9 12 12 11 12 11 4 10 8 10 9 8 4 3
13 13 13 13 13 14 14 11 11 12 11 11 8 9 8 5 5 6 5 5 9 14 11 4 12 17 18 17 15 14 12 14 15 13 14 13 6 7 10 11 2 5 7 5 3 3 4 2 1 3 1 2 3 3 7 5 6 8 11 12 11 6 6 4 6 4 6 6 4 2 1 4 5 6 9 7 8 8 7 7 4 8 13 14 9 5 3
12 13 13 12 13 13 14 12 10 11 11 11 9 8 8 4 4 4 6 5 6 8 3 11 15 15 14 13 13 13 11 11 13 13 13 14 15 15 15 9 7 3 1 3 3 1 2 1 2 2 2 2 2 2 3 5 7 4 6 10 11 11 11 10 6 4 3 5 3 3 4 4 5 9 13 12 8 7 6 6 9 9 13 8 5 6 1
12 12 12 13 13 14 14 12 10 10 10 9 8 8 8 2 1 5 7 6 5 11 16 19 14 12 11 10 11 9 10 9 13 11 12 14 16 16 16 10 8 5 2 3 4 3 0 1 1 3 2 5 4 2 1 1 7 7 6 6 8 4 4 1 5 7 7 4 5 4 0 3 9 8 10 16 11 8 11 9 8 9 9 8 7 6 6
12 12 12 12 12 13 13 11 10 10 10 7 9 8 9 8 4 6 6 7 8 11 9 8 15 11 8 9 12 12 10 10 11 11 9 13 12 14 16 10 11 7 3 3 2 1 2 1 3 3 4 3 5 3 1 5 4 4 5 3 3 0 2 4 9 6 7 3 3 2 1 4 11 6 7 10 4 3 8 10 3 8 1 7 4 8 5
12 12 12 12 12 13 12 10 9 10 10 8 9 9 7 6 3 5 7 8 7 11 14 17 14 12 12 11 11 11 10 12 12 9 10 9 9 17 19 4 11 7 11 4 4 2 2 2 2 3 3 5 6 4 5 3 2 6 5 2 9 8 4 6 6 6 4 1 6 2 2 5 4 11 3 5 7 4 6 3 4 3 4 3 6 5 8
12 12 12 13 12 13 13 10 10 10 11 9 8 9 10 11 6 3 5 8 9 13 16 16 13 15 10 12 11 11 11 10 8 9 9 10 13 17 10 3 8 10 9 10 7 6 4 5 5 2 3 6 5 5 3 3 3 4 2 2 1 2 1 1 1 3 1 5 7 4 3 3 8 9 7 7 4 1 2 2 3 3 1 0 5 10 7
12 12 12 13 13 14 13 11 11 12 11 11 9 8 10 9 7 6 6 5 7 12 11 5 8 16 16 17 16 16 13 13 11 10 9 10 11 9 7 7 10 7 6 7 7 6 4 6 8 4 2 1 4 6 5 3 1 6 7 3 5 4 0 2 1 2 2 6 5 2 2 5 3 6 3 5 5 4 2 3 4 2 2 4 8 10 7
12 12 12 12 13 14 13 11 12 13 12 11 10 8 8 8 9 9 8 7 10 11 13 19 18 19 21 20 18 17 17 16 14 10 9 9 8 8 6 8 8 6 4 7 6 3 5 5 5 6 7 4 4 4 9 4 5 4 6 4 1 8 2 2 2 3 1 2 3 4 9 4 9 4 10 9 9 6 4 5 6 5 7 9 8 10 8
12 12 12 13 13 13 12 12 14 13 13 10 8 6 9 9 9 9 9 10 10 11 12 14 16 17 19 22 22 20 16 13 12 10 8 7 9 8 5 5 10 7 5 6 6 6 7 8 6 7 6 5 7 7 8 6 3 7 4 1 1 8 8 7 3 3 5 6 9 7 8 2 9 3 8 10 9 8 7 9 7 4 7 8 7 5 6
11 12 12 13 13 13 12 13 13 12 12 12 9 9 9 9 11 10 9 10 10 12 13 7 6 5 7 10 9 6 14 14 12 10 6 4 6 7 7 3 8 7 6 9 5 8 7 4 6 5 6 6 6 3 4 4 5 5 2 1 2 3 2 6 4 8 4 2 9 12 12 6 8 8 10 11 10 6 6 8 8 8 10 8 3 1 6
11 11 12 12 13 12 13 13 13 12 12 13 12 9 9 9 9 8 9 7 7 8 9 12 13 14 15 13 13 12 8 8 11 12 8 7 6 7 8 10 10 9 11 11 7 8 3 5 7 4 5 4 3 3 3 5 2 8 4 5 3 3 5 5 5 8 5 3 8 10 4 8 15 11 7 10 12 9 8 9 9 7 8 9 8 6 10
11 10 11 12 12 12 12 13 13 12 11 12 11 9 8 9 10 10 8 10 8 7 9 9 10 12 13 15 14 12 13 12 10 5 8 9 8 8 10 8 8 7 8 8 7 5 5 5 4 6 6 3 2 2 1 5 6 10 7 6 6 6 5 3 6 3 2 5 7 9 5 13 10 8 6 9 9 10 11 10 11 12 12 9 7 6 10
10 10 11 11 11 11 13 12 12 12 12 11 10 9 9 9 10 9 8 6 8 6 5 8 11 15 14 20 20 15 11 9 8 7 7 9 12 12 11 8 8 8 8 8 6 5 3 4 5 7 5 4 4 7 7 1 1 4 3 4 9 4 6 2 2 2 2 5 5 9 4 2 7 11 13 11 10 9 10 12 12 11 11 10 11 11 9
10 11 12 11 10 12 13 13 13 12 11 12 10 9 10 11 10 5 2 3 5 7 10 12 12 15 19 21 15 10 8 7 8 9 9 8 10 12 9 5 2 6 7 6 6 4 4 6 6 4 4 4 6 3 6 5 1 3 3 3 4 2 3 3 2 2 1 2 3 3 4 1 5 8 8 9 8 9 10 11 10 10 10 10 11 12 12
11 11 11 11 11 12 13 13 13 10 11 11 9 10 11 13 12 6 3 3 1 7 8 12 13 13 7 11 16 15 13 9 6 6 6 8 11 10 9 10 2 5 6 5 4 4 5 5 4 6 6 6 5 5 6 3 4 2 4 5 6 1 0 5 7 4 3 3 2 3 5 1 6 7 5 6 6 8 10 9 6 9 10 9 10 11 11
11 11 11 11 12 12 12 13 11 10 10 8 8 7 7 4 4 2 2 1 2 4 5 7 9 4 11 8 9 9 8 4 6 6 7 7 8 8 9 7 3 5 5 4 3 5 4 5 4 7 7 1 3 3 4 4 3 2 5 2 4 7 6 4 4 4 3 1 1 3 5 2 8 3 7 6 4 5 7 9 9 7 7 8 9 10 10
11 11 11 11 11 10 11 11 10 9 11 7 6 4 5 1 4 1 2 2 1 4 4 3 9 10 10 8 10 11 10 9 6 5 6 7 7 7 7 5 5 5 4 4 4 5 4 5 4 5 7 2 1 3 4 5 3 3 3 5 2 8 9 6 6 5 3 1 2 5 6 6 7 6 6 5 4 5 6 7 8 8 9 8 10 9 9
11 11 11 10 10 9 10 10 10 10 7 7 7 5 5 4 5 4 2 3 4 5 3 7 8 4 4 7 6 7 8 8 6 5 6 5 7 5 6 5 6 3 4 5 4 4 4 4 5 6 6 5 4 4 6 5 3 5 7 3 5 11 2 5 8 7 4 1 6 9 6 4 2 3 2 4 1 3 3 4 5 6 7 9 8 9 10
11 11 10 9 9 10 11 11 12 10 8 11 17 20 21 21 15 14 8 6 6 4 3 4 6 5 4 6 10 10 4 4 6 5 6 4 5 3 7 5 5 6 4 3 3 2 2 3 3 5 3 2 2 3 5 4 1 2 5 5 8 5 4 2 3 3 7 5 7 6 5 3 2 2 4 5 3 3 2 3 2 5 5 7 9 10 10
11 10 9 9 10 11 11 13 13 14 14 10 8 6 5 9 9 11 8 5 4 4 1 3 4 6 8 9 10 1 2 6 7 2 4 3 2 5 4 4 4 3 4 4 3 4 4 5 4 3 5 3 2 3 3 5 11 8 8 9 5 3 3 3 2 3 6 5 5 6 6 6 5 4 1 2 3 1 3 2 8 4 4 6 6 8 8
9 8 8 10 11 12 13 14 9 7 7 6 7 3 4 5 4 9 7 4 3 2 2 3 4 8 8 6 5 3 5 6 7 3 5 1 4 6 4 4 0 2 1 4 4 5 2 2 6 5 2 2 2 2 2 4 7 7 2 9 6 5 8 7 7 5 3 4 4 3 2 1 3 5 2 4 4 6 3 4 6 5 4 4 6 8 8
6 7 9 11 12 11 9 9 9 7 6 7 2 4 6 7 6 6 5 5 4 4 3 3 4 7 7 7 7 4 8 8 5 5 6 5 5 2 3 3 6 2 3 2 5 5 2 4 1 3 1 3 1 4 4 8 6 7 7 7 7 6 1 2 1 5 6 5 3 3 1 5 7 8 4 1 2 5 3 3 6 4 6 4 6 7 7
6 8 11 12 8 6 7 5 5 6 2 4 5 6 6 7 4 4 3 3 3 2 5 4 7 9 7 7 3 3 6 6 6 6 2 3 4 1 5 4 5 1 2 4 4 2 4 8 3 4 1 3 4 2 4 5 6 7 8 7 7 7 7 5 5 7 7 8 9 6 5 5 5 4 8 9 9 5 2 2 2 5 5 6 6 5 6
5 8 6 6 6 5 3 3 1 3 8 6 5 2 4 4 2 2 2 2 3 4 4 4 8 9 8 8 8 6 6 6 6 4 4 3 3 3 1 3 3 1 5 5 1 4 4 1 3 3 3 3 6 2 6 5 6 6 6 7 7 8 8 9 8 7 5 4 4 7 6 6 6 5 4 6 11 8 4 5 4 5 4 4 5 4 5
5 5 5 6 4 3 2 2 1 4 4 1 4 2 2 2 2 2 2 3 2 4 4 5 7 8 8 8 8 4 6 7 6 5 4 4 3 3 2 4 0 2 3 4 1 2 4 2 2 3 2 9 9 8 9 5 4 5 5 6 6 7 8 8 8 10 7 5 5 5 7 5 5 6 5 5 5 9 10 7 2 6 7 7 8 7 6
3 4 2 3 5 1 4 4 5 4 3 2 2 2 3 2 3 3 3 3 4 4 3 6 9 8 7 8 7 6 3 4 4 4 5 6 3 4 3 4 3 3 4 5 0 4 3 4 1 3 0 5 6 3 6 4 5 5 6 6 7 7 7 7 7 7 6 5 6 5 5 6 5 6 5 3 6 7 7 10 9 8 4 4 3 5 5
3 4 5 3 5 4 2 3 4 3 2 2 2 2 2 3 4 2 2 4 4 1 5 5 2 4 5 6 7 6 3 3 5 6 3 5 2 4 3 4 3 4 3 4 1 2 3 4 3 3 4 7 6 4 7 3 3 5 6 6 6 5 5 5 6 7 7 6 7 6 7 8 6 6 5 6 5 2 3 2 2 5 7 3 3 5 4
1 1 3 6 8 7 5 4 2 2 2 2 2 3 3 3 2 3 3 3 2 1 2 2 5 4 4 4 6 6 4 5 6 3 2 3 0 2 3 3 2 3 3 2 3 3 3 3 3 1 4 4 3 7 4 4 3 5 5 6 5 6 8 8 7 9 8 7 4 3 3 4 5 6 6 4 5 3 4 6 5 4 3 2 3 2 5
7 8 5 5 3 3 2 4 3 2 2 2 2 3 2 2 3 4 3 3 2 3 1 3 3 3 5 3 5 1 2 2 2 2 2 3 2 2 3 3 3 4 3 4 3 3 4 4 3 4 6 5 7 6 4 3 4 4 5 3 4 5 5 6 6 5 5 6 8 7 7 8 6 5 3 5 3 2 2 1 3 7 6 4 3 5 6
4 4 4 2 2 3 2 4 2 1 2 2 3 4 3 4 5 4 3 1 2 3 3 6 4 4 4 2 5 3 2 4 2 2 3 2 2 3 2 3 3 4 5 4 2 4 3 4 3 6 6 2 3 2 3 2 3 2 3 2 5 4 5 4 4 6 7 6 5 5 5 5 5 5 6 10 9 5 4 4 4 4 4 3 2 2 3
2 2 2 2 2 1 2 2 2 2 4 4 3 5 4 4 2 2 2 3 2 6 5 5 6 6 7 5 3 3 0 3 0 2 2 2 3 3 2 4 3 4 3 4 4 3 3 1 7 6 6 9 9 5 3 1 2 3 2 3 1 4 4 5 7 7 6 5 5 7 5 5 5 6 5 5 5 5 5 5 5 5 5 6 5 2 5
2 3 3 3 2 2 3 2 2 4 4 4 4 5 7 5 4 3 3 1 5 6 6 6 6 5 8 4 2 3 1 3 3 3 2 2 3 3 3 4 3 5 4 4 4 6 3 6 8 8 6 1 9 3 1 2 2 2 1 1 2 3 2 5 5 5 5 5 5 4 6 7 6 6 5 5 4 5 6 6 7 6 6 5 4 4 2
3 2 2 2 4 2 3 4 5 4 4 5 5 5 4 5 4 4 5 6 7 5 6 5 6 7 7 4 3 3 3 1 3 3 3 3 3 2 1 3 3 3 3 4 4 4 6 9 10 11 12 11 6 2 2 1 1 2 3 3 3 3 2 4 3 3 3 4 5 5 5 4 5 4 5 5 5 5 4 5 5 5 4 5 5 3 2
3 2 2 3 3 2 7 6 7 7 7 8 7 5 5 4 5 5 3 2 3 4 5 5 6 5 5 3 2 4 3 3 3 3 2 3 2 2 2 1 3 3 3 5 3 6 6 9 10 11 9 10 15 14 7 3 3 2 2 2 3 4 4 2 2 3 3 4 3 2 3 4 3 4 2 2 2 3 3 3 4 3 3 4 5 5 3
2 2 2 2 2 3 4 6 6 8 6 6 4 4 4 5 5 6 4 3 3 5 5 5 4 3 4 3 4 4 4 1 4 2 1 2 2 2 2 3 2 5 1 5 4 6 5 5 6 7 8 8 8 10 14 11 3 1 2 3 7 7 4 3 3 3 3 2 4 3 3 3 4 4 3 2 1 2 3 3 2 2 2 2 3 3 4
3 3 3 4 4 5 7 7 5 6 6 5 6 5 4 5 5 3 4 3 4 5 5 5 4 3 3 2 3 3 4 3 3 2 3 4 3 3 3 5 3 3 6 7 6 7 7 7 7 9 9 8 7 6 5 9 14 9 4 4 4 4 0 3 0 2 1 2 2 2 2 1 2 3 3 3 1 2 2 3 1 2 2 3 3 2 3
2 3 4 6 7 5 5 5 4 4 5 5 3 5 3 4 2 1 5 2 3 3 3 4 2 3 2 2 2 3 1 2 3 3 3 4 2 3 2 5 5 6 6 7 7 10 8 8 9 9 10 10 9 9 7 3 5 14 9 4 7 5 6 5 5 4 2 1 3 2 4 1 3 2 4 3 2 2 1 1 3 1 3 3 3 2 1
2 4 4 6 9 10 9 8 8 8 8 8 8 6 5 6 3 4 3 5 5 3 4 3 3 3 2 4 3 3 3 3 3 3 4 2 2 2 1 3 5 5 5 6 8 10 10 8 9 10 10 10 10 10 8 8 7 8 11 5 5 5 5 3 0 1 3 3 2 3 4 5 2 2 2 2 3 3 1 0 2 3 1 2 3 3 2
Wind_Direction
343 342 343 343 344 344 342 342 341 343 346 348 344 322 301 257 301 109 168 174 203 276 291 282 289 310 330 317 315 325 308 294 317 322 338 324 277 233 236 258 312 288 273 315 311 317 290 275 289 296 250 253 224 237 189 221 230 217 225 210 27 113 211 221 218 187 198 201 216 227 240 225 209 210 221 206 200 217 219 212 182 202 192 196 180 206 181
344 343 342 342 343 343 342 340 338 341 350 346 329 321 315 316 303 212 171 192 226 288 287 329 329 324 321 329 324 322 327 322 337 334 339 354 304 260 265 312 254 291 325 310 300 342 309 239 231 263 278 243 223 240 199 204 229 221 198 187 320 213 228 289 203 189 182 197 205 225 234 237 218 208 223 229 205 206 212 208 159 221 205 197 177 180 200
343 343 342 341 341 343 342 338 336 339 340 346 327 315 316 295 263 235 171 203 207 280 330 310 318 311 322 329 320 331 349 317 341 334 340 331 352 330 266 258 291 276 203 248 298 291 239 303 284 280 288 305 271 239 217 184 230 218 122 128 214 123 199 192 201 184 177 188 192 204 208 218 247 237 218 215 197 197 215 240 180 222 188 206 178 185 146
342 342 341 339 340 343 343 339 335 335 337 340 331 307 296 313 321 357 304 187 239 260 256 274 277 304 327 324 310 328 328 333 342 349 321 25 342 316 295 280 266 294 289 306 270 280 255 243 297 285 281 259 257 229 211 191 223 226 128 154 178 165 190 218 235 194 186 180 189 210 213 194 222 217 212 198 205 206 215 272 246 224 203 213 193 146 119
340 339 339 339 341 344 344 341 336 334 333 336 323 288 236 280 310 360 328 325 252 307 286 238 286 322 331 316 309 317 327 329 332 25 301 23 330 320 295 294 340 339 337 323 281 246 254 254 266 270 267 274 284 291 234 196 225 234 164 201 274 292 266 215 229 222 217 190 194 200 209 198 207 209 210 211 208 204 204 256 236 215 220 79 69 111 130
337 336 336 339 341 345 347 344 339 334 332 331 319 301 337 314 8 353 34 298 293 317 317 338 316 315 322 297 282 317 330 333 334 332 244 276 359 336 291 263 324 326 319 316 276 253 250 264 255 258 252 269 259 273 232 215 193 133 232 211 189 94 288 297 220 263 272 267 210 203 210 209 199 203 204 207 202 198 181 224 243 250 10 118 126 136 144
335 335 333 338 343 344 347 349 343 337 332 331 299 355 357 356 319 312 27 325 309 309 298 292 286 299 287 304 328 333 335 332 339 329 319 330 308 356 280 275 295 315 315 313 266 300 183 213 233 251 293 265 272 256 194 229 203 185 250 209 96 178 269 283 272 264 268 277 219 197 205 199 194 205 199 204 197 196 197 217 248 151 92 84 94 80 56
335 334 332 335 340 343 347 351 347 338 337 324 357 42 356 18 351 330 340 307 288 277 276 290 304 320 353 344 346 333 333 334 331 329 322 318 287 174 261 283 300 292 290 267 276 294 348 128 189 277 311 276 257 262 232 221 215 206 223 129 127 116 272 263 253 247 243 266 283 217 199 206 206 197 197 205 200 197 189 147 78 115 103 109 107 112 89
333 334 333 334 337 341 345 352 349 343 339 339 357 42 23 348 348 336 318 316 301 304 303 303 304 333 357 342 336 330 334 333 328 312 309 295 313 290 258 286 304 307 303 348 294 213 207 161 224 248 245 280 247 290 222 241 223 210 204 122 26 320 294 265 252 233 240 241 258 270 216 198 201 206 202 199 208 227 191 128 278 117 137 136 123 120 106
331 332 332 333 334 338 343 351 350 349 335 357 351 13 6 351 347 324 304 292 283 294 281 271 314 353 346 338 338 337 331 329 337 324 306 300 305 345 330 257 273 293 324 11 331 345 267 232 185 214 207 257 279 252 307 302 286 226 196 222 168 216 326 313 246 219 233 196 227 256 211 189 204 207 195 195 201 232 208 148 156 122 138 180 97 78 82
327 327 331 334 333 335 339 347 352 351 351 5 353 352 359 356 338 326 306 293 293 305 321 334 356 343 331 352 337 338 328 329 342 328 310 317 334 10 328 319 300 309 333 313 338 331 285 258 249 248 223 216 209 223 253 269 9 280 243 55 96 67 306 259 309 243 209 222 199 223 206 196 196 183 201 201 198 207 199 216 160 155 198 106 114 114 91
322 322 329 335 332 330 333 341 352 351 349 346 338 328 9 350 325 316 326 311 295 307 317 331 349 319 349 346 337 331 328 336 337 328 322 342 339 344 314 351 12 15 294 291 348 344 188 160 223 248 276 273 255 271 281 263 266 276 252 207 221 151 138 318 311 271 230 225 143 174 191 195 183 178 202 200 194 195 220 222 192 183 178 137 137 151 137
318 318 326 332 333 332 328 333 345 348 344 340 333 323 351 353 322 328 323 308 292 317 317 321 315 330 344 337 336 330 329 341 335 338 9 358 320 323 300 346 12 322 345 19 352 343 43 13 56 331 252 286 268 273 271 267 237 223 252 251 215 224 227 276 246 245 312 230 211 195 201 183 191 174 190 193 204 196 216 212 202 197 166 241 207 139 124
313 316 323 329 332 335 329 328 335 343 338 334 330 321 307 340 340 336 337 323 298 294 310 296 321 339 337 331 324 328 337 347 335 345 346 341 343 312 321 71 224 306 5 344 338 335 48 359 45 353 33 343 308 284 282 302 286 268 261 248 235 226 37 322 301 262 232 202 206 161 97 169 197 187 185 187 193 189 206 196 203 198 214 178 221 214 113
310 314 319 324 327 330 332 324 326 335 337 330 323 305 310 345 349 328 318 306 298 303 287 325 339 327 328 321 326 339 347 346 338 341 336 330 337 204 345 64 97 356 333 342 344 2 47 348 7 337 305 20 333 295 332 305 315 277 256 257 250 215 160 185 229 230 242 201 170 133 203 175 180 170 170 176 193 190 184 236 239 218 212 213 204 88 92
307 311 315 321 323 326 331 326 319 327 335 336 323 325 321 327 326 294 311 309 314 304 6 355 318 326 324 313 342 344 350 333 340 333 335 338 348 4 6 46 137 248 295 1 321 303 110 2 321 311 351 338 34 317 308 310 305 284 243 236 230 234 228 235 258 265 243 233 190 174 169 168 162 175 170 186 178 176 153 196 229 204 218 177 103 187 136
304 308 313 319 322 322 327 326 315 323 331 341 328 317 305 314 266 333 317 304 270 261 287 293 307 331 313 322 340 342 347 334 335 342 333 337 345 359 348 359 136 147 253 36 12 341 293 310 252 273 277 272 282 325 175 245 300 312 309 256 232 226 240 192 234 252 267 213 182 188 83 142 174 211 175 170 180 180 179 187 220 200 193 112 173 188 230
299 305 312 316 318 320 326 328 317 323 327 335 319 322 301 291 249 310 304 290 296 284 269 306 339 323 318 331 312 314 315 324 329 319 323 326 344 358 335 347 355 25 128 105 16 23 292 301 342 355 329 354 336 266 12 298 291 277 286 214 125 341 270 218 235 246 255 235 76 339 314 289 321 256 181 140 112 198 196 194 138 0 50 139 157 212 130
295 302 308 313 316 318 326 324 321 319 323 329 320 308 290 318 297 248 297 295 286 275 289 315 306 295 288 290 293 304 307 318 310 323 327 331 360 341 326 358 0 351 1 8 177 261 323 356 298 1 314 340 354 0 305 337 338 277 284 252 167 182 212 205 218 240 265 163 125 104 264 334 324 308 257 126 144 190 190 73 340 356 94 183 212 128 104
292 299 303 309 312 315 320 316 316 317 314 322 320 311 306 293 280 208 288 303 296 283 290 288 278 282 299 310 306 305 313 308 324 330 332 324 334 333 338 348 6 352 4 0 2 1 347 353 356 339 313 344 345 332 303 54 326 341 342 318 38 44 17 274 200 308 159 231 113 165 191 232 234 273 191 158 214 112 51 104 8 338 7 135 97 89 89
290 293 300 306 311 313 315 311 314 317 315 311 311 307 306 307 295 243 221 242 289 300 295 264 303 307 301 287 281 283 285 288 309 316 317 307 317 328 346 351 339 353 2 353 340 350 345 329 344 340 34 240 313 319 352 319 66 327 359 18 61 24 328 7 280 350 274 159 158 151 39 143 256 269 161 72 47 97 129 103 124 66 316 136 119 100 78
285 292 297 304 308 313 313 310 313 314 313 309 314 297 286 302 317 320 303 279 281 270 270 288 288 281 277 270 265 259 261 268 279 293 304 307 309 311 327 328 341 9 3 342 352 338 354 337 308 337 332 336 321 333 330 335 32 33 61 1 77 28 350 295 294 335 327 44 52 37 314 334 67 1 83 84 93 115 158 86 47 25 71 62 62 77 57
284 292 298 303 307 312 314 312 316 316 310 312 309 295 298 305 300 305 302 285 278 275 281 281 279 271 265 264 253 248 247 245 257 263 260 275 299 301 323 340 1 347 355 17 1 325 318 324 306 321 309 344 358 325 324 335 34 16 17 57 227 56 328 355 304 36 34 24 17 1 261 65 85 62 82 100 97 66 76 88 89 60 62 68 63 70 93
284 291 297 301 306 309 311 316 318 320 313 312 308 303 298 301 301 305 289 280 299 312 305 283 298 297 297 318 345 215 216 236 242 244 250 276 283 301 300 17 3 325 339 349 349 320 324 311 295 322 310 312 347 336 347 343 16 26 325 89 62 96 328 53 357 333 317 30 351 354 338 44 54 78 79 69 77 81 81 80 72 85 93 93 36 289 118
283 289 295 301 303 304 307 312 315 314 317 312 308 290 283 276 272 283 299 309 309 320 301 305 292 267 282 311 313 296 274 250 202 204 226 219 258 277 288 319 331 316 313 318 313 308 304 306 304 295 302 18 328 317 15 309 352 3 352 12 11 35 36 82 326 347 33 40 355 330 272 42 25 359 76 91 98 106 78 72 88 89 99 117 153 142 95
281 287 293 297 299 301 304 309 311 310 306 310 302 298 296 296 292 285 281 275 286 287 288 294 287 299 311 311 304 313 309 300 302 271 207 218 249 275 288 292 287 290 289 294 299 286 291 285 291 294 318 317 286 284 258 172 291 315 315 36 3 360 352 65 300 27 330 55 48 332 69 56 43 14 33 47 52 62 76 99 99 87 86 93 106 105 113
270 278 283 287 296 298 300 304 306 307 306 305 297 292 285 280 272 272 287 321 322 297 237 267 296 307 323 314 300 288 267 260 237 242 251 231 243 234 224 256 306 310 305 303 307 293 278 276 282 300 308 263 280 279 310 7 184 324 337 351 345 25 44 53 300 27 28 11 7 358 43 27 18 30 24 24 38 52 63 49 46 67 85 78 68 50 58
267 274 280 287 287 289 295 302 310 315 312 307 293 286 276 267 260 277 313 301 276 280 298 297 299 301 310 282 281 294 295 250 234 228 225 229 246 249 266 292 273 296 299 313 313 312 318 304 306 311 264 316 327 330 348 297 316 231 297 347 341 40 91 104 45 21 37 308 358 58 10 14 50 35 7 28 24 66 62 66 57 44 56 71 74 71 60
265 272 279 282 282 286 293 303 310 313 317 306 289 283 275 251 252 228 72 52 290 287 288 291 289 280 292 336 319 292 262 237 245 251 261 265 287 302 205 207 258 302 294 288 287 293 289 290 296 299 316 342 307 315 315 344 328 21 318 344 342 270 225 98 128 154 286 318 292 2 85 2 321 78 50 35 13 38 62 69 78 79 69 52 71 71 74
263 271 277 281 283 287 296 305 313 308 313 304 299 288 289 107 15 38 38 333 308 310 299 317 309 291 327 315 294 303 302 281 255 229 228 260 259 265 294 309 242 225 261 272 288 285 289 298 299 285 287 232 298 304 304 323 328 41 269 324 35 335 321 87 153 166 224 215 308 69 92 64 278 34 66 61 63 46 37 42 62 80 72 62 71 83 82
264 268 277 283 287 293 300 304 306 302 298 284 298 287 284 240 88 44 50 307 352 289 291 261 267 298 293 255 257 269 279 272 269 278 273 264 257 272 271 274 281 254 273 275 257 261 281 279 289 288 288 11 3 293 304 289 334 322 282 326 284 187 175 199 197 177 166 93 93 73 47 29 5 3 54 56 51 36 74 69 56 71 86 81 79 79 79
263 272 279 288 289 292 295 295 291 293 287 278 256 268 326 323 333 9 37 291 320 286 290 300 303 287 299 294 299 319 288 293 292 269 245 230 265 244 255 249 291 294 271 287 302 310 270 282 273 289 298 148 192 291 290 305 319 338 342 352 350 296 88 140 150 151 113 196 104 60 22 1 355 130 282 12 204 47 23 127 118 88 92 98 95 90 92
263 270 276 281 284 283 285 287 288 288 285 294 304 297 287 276 249 245 265 282 282 266 268 282 281 298 275 302 321 293 279 269 261 244 260 191 270 341 274 248 253 270 178 230 242 264 279 281 309 287 309 114 270 294 300 307 61 238 286 272 248 279 10 16 38 97 103 114 112 143 170 248 257 218 223 276 12 119 241 66 78 88 67 87 99 101 98
260 267 276 277 278 285 283 282 286 282 274 266 269 251 228 241 231 205 227 242 278 283 276 273 279 285 284 294 283 22 351 311 310 304 287 147 214 217 267 267 217 249 201 227 251 248 264 267 271 294 314 274 272 288 285 27 2 287 240 241 299 345 323 350 11 65 112 124 124 128 153 183 228 254 124 324 264 45 336 284 63 46 90 68 63 80 84
259 262 263 273 278 280 286 280 279 257 261 268 261 103 72 35 118 164 197 201 227 226 233 234 242 283 301 308 304 70 346 308 302 333 296 141 182 261 286 277 270 258 288 201 255 248 286 322 332 285 293 339 271 243 323 64 244 263 21 77 297 326 4 349 10 3 44 104 109 84 90 285 228 193 193 197 212 248 214 164 155 131 56 57 67 69 65
248 257 268 274 279 280 279 252 233 244 241 248 283 92 112 128 158 175 204 204 249 294 288 291 300 282 300 295 307 351 350 304 309 308 314 305 251 229 314 339 291 294 1 264 280 292 177 243 282 275 17 278 331 28 336 287 333 31 8 17 13 24 2 340 257 307 38 336 31 95 333 5 9 353 230 293 294 273 256 95 106 116 114 86 57 46 61
249 267 279 279 275 249 242 253 187 210 300 79 119 163 210 248 221 220 168 230 203 220 265 287 272 263 266 288 300 284 319 313 343 313 314 268 283 201 213 215 256 164 217 223 236 288 286 199 242 279 283 294 26 318 299 10 17 8 21 14 19 10 28 25 10 353 0 30 23 351 6 1 35 56 7 352 306 306 326 70 351 106 113 83 85 83 55
270 284 286 275 245 256 260 241 170 92 118 118 144 197 189 200 243 194 187 225 201 195 224 228 256 266 275 272 275 310 300 303 318 311 316 339 317 296 294 267 291 322 291 300 317 148 222 244 272 285 267 177 165 241 31 37 39 33 24 23 15 18 20 19 27 43 16 9 61 21 357 17 7 16 19 21 338 312 358 325 10 49 70 98 99 87 75
273 272 253 253 266 262 296 70 175 240 262 247 227 286 222 195 247 235 192 192 197 219 202 230 252 242 245 254 272 280 307 314 305 311 307 355 315 315 311 301 132 221 285 283 79 33 269 253 257 275 300 67 54 360 342 18 44 39 44 44 33 26 30 44 34 36 55 57 53 39 29 22 21 16 31 33 32 340 320 327 346 63 61 48 39 42 65
237 242 238 227 239 72 99 118 161 223 236 252 193 225 275 198 227 262 152 211 219 202 189 236 227 240 251 280 304 299 292 284 299 323 328 313 257 293 344 307 321 309 296 293 326 208 300 296 351 293 45 81 74 75 297 296 60 43 50 44 38 36 43 41 42 37 44 61 65 53 44 55 26 20 20 40 41 14 352 338 352 36 358 45 26 52 61
211 243 253 282 4 339 307 144 205 233 244 257 267 235 248 252 211 259 286 274 292 261 181 270 285 265 251 253 257 277 314 290 293 298 294 280 354 313 289 291 338 301 299 283 83 266 244 255 273 293 53 97 124 235 236 122 67 66 50 39 33 27 10 24 45 57 40 42 31 31 29 23 26 39 47 14 34 56 63 82 6 333 325 338 44 77 31
10 318 303 293 278 269 281 262 242 235 243 249 253 255 234 261 251 231 212 266 267 267 189 234 280 302 311 302 300 313 328 353 310 281 283 290 16 289 311 293 278 288 296 330 337 255 271 276 279 46 59 60 135 164 193 101 78 77 65 53 44 22 24 40 25 24 20 4 29 34 19 24 10 10 22 43 89 52 348 329 313 226 143 149 301 336 80
259 243 277 299 304 268 243 257 202 222 218 205 230 270 232 248 224 250 234 212 238 271 252 193 277 290 273 284 281 237 268 186 268 303 279 284 322 265 283 292 287 266 277 306 294 296 294 291 306 75 65 80 311 311 58 44 82 69 71 14 70 50 51 37 40 18 36 11 12 8 7 353 354 5 352 319 337 35 17 63 32 14 8 331 12 27 39
293 267 236 222 253 254 228 258 179 157 240 211 207 238 222 228 236 212 263 309 32 278 359 311 308 322 319 9 323 313 259 231 220 268 272 287 280 299 291 274 265 285 305 259 266 270 272 279 43 115 150 184 168 228 87 74 62 84 74 12 40 53 38 24 44 46 33 19 3 1 342 335 344 338 12 11 356 1 7 6 5 353 328 330 71 58 60
240 211 224 235 240 217 124 275 180 187 230 215 216 256 261 272 331 330 353 58 267 292 313 291 318 318 304 323 298 268 234 309 159 268 295 325 300 277 275 271 319 328 294 305 292 293 296 267 79 71 69 63 321 335 351 13 64 82 57 7 349 50 36 30 15 17 37 19 357 347 355 17 347 344 357 352 346 349 339 343 20 356 344 338 340 33 69
213 217 195 215 243 243 218 246 184 230 231 233 235 242 261 291 344 340 107 238 312 308 293 319 316 307 289 307 300 317 315 291 300 272 292 281 287 281 279 313 295 277 297 287 296 281 274 25 10 33 21 201 218 191 239 55 118 95 61 348 301 68 27 31 25 22 10 4 353 348 11 13 8 350 344 332 336 346 6 3 4 358 349 330 332 332 4
247 238 267 274 271 233 206 240 226 234 255 246 246 260 282 307 326 319 336 323 309 330 321 315 301 301 299 297 293 284 266 270 273 290 295 277 265 286 333 293 291 273 268 269 254 313 6 28 17 15 355 334 346 351 307 37 32 32 3 43 359 308 1 43 43 45 37 7 359 4 6 2 356 354 348 343 6 10 3 354 358 357 334 323 327 359 10
225 222 219 237 227 222 216 230 247 257 253 262 275 272 290 311 302 296 277 269 315 315 296 307 297 308 296 336 289 266 285 280 282 271 254 276 288 283 290 276 261 268 264 279 335 20 11 7 7 6 359 1 346 327 319 325 4 21 43 3 327 331 19 337 356 55 41 349 11 25 20 357 338 333 17 352 335 3 27 21 359 348 343 340 341 341 348
275 296 240 228 238 259 260 260 251 256 257 269 272 275 278 279 289 280 310 2 307 298 320 310 307 316 287 311 297 303 278 251 259 271 245 239 247 248 235 247 260 262 357 29 353 4 359 2 357 358 1 1 2 359 334 319 335 4 359 355 328 354 30 359 13 62 96 11 345 17 36 3 329 319 328 326 354 14 358 4 358 17 4 8 28 22 28
235 229 238 263 277 270 263 268 281 284 279 272 292 270 266 274 268 315 47 303 306 306 313 303 281 271 294 328 301 309 289 277 260 285 281 272 266 275 278 272 273 343 357 345 349 330 328 350 3 4 355 358 341 334 360 344 326 317 338 336 275 246 281 51 18 165 151 40 320 360 320 270 301 333 346 17 57 272 351 10 358 67 32 25 16 38 51
235 251 252 236 245 266 293 281 283 289 282 280 303 314 292 244 292 264 99 351 326 310 281 272 279 258 262 273 292 276 268 18 306 269 272 279 277 258 273 297 336 345 326 324 331 314 335 9 360 350 345 346 351 339 332 4 336 312 307 306 299 342 34 18 22 37 60 319 325 313 278 253 76 294 299 324 332 322 142 254 304 12 103 110 93 46 60
225 229 238 232 233 247 259 277 283 289 304 311 303 295 328 312 338 300 335 308 291 281 279 285 279 287 286 268 264 280 307 296 276 297 276 291 37 355 25 301 305 315 346 330 334 317 329 350 357 344 338 343 341 336 331 329 335 314 299 301 300 359 26 22 31 243 236 207 222 286 69 105 148 276 314 289 283 266 231 80 312 291 219 136 117 101 82